weather.gov     
National Weather Service

Regional Weather Roundup
NWS Homepage
This page is being discontinued on March 12, 2014.
The same data is available at this site. Please update your bookmarks.
Thank you, and we apologize for the inconvenience.
Please send an email to SR-SRH.Webmaster@noaa.gov with any concerns.


Current Version
Previous Version:    01  02  03  04  05  06  07  08  09  10  11  12  13  14  15  16  17  18  19  20  21  22  23  24  25  26  27  28  29  30  
   31  32  33  34  35  36  37  38  39  40  41  42  43  44  45  46  47  48  49  50  51  52  53  54  55  56  57  58  59  60  
[Printable]
960
ASUS44 KFWD 221515
RWRTX
NORTH TEXAS HOURLY WEATHER ROUNDUP
NATIONAL WEATHER SERVICE FORT WORTH TX
1000 AM CDT WED OCT 22 2014

NOTE: "FAIR" INDICATES FEW OR NO CLOUDS BELOW 12,000 FEET WITH NO
SIGNIFICANT WEATHER AND/OR OBSTRUCTIONS TO VISIBILITY.

TXZ118-119-221600-
DALLAS/FORT WORTH METROPLEX

CITY           SKY/WX    TMP DP  RH WIND       PRES   REMARKS
DFW AIRPORT    NOT AVBL
DALLAS LOVE    NOT AVBL
FTW MEACHAM    NOT AVBL
FTW-NAS-JRB    MOSUNNY   71  60  68 S3        30.20R
FTW-SPINKS     SUNNY     68  63  83 CALM      30.17R
GRAND PRAIRIE  SUNNY     70  63  78 MISG      30.17R
ADDISON        SUNNY     70  61  73 SE9       30.16R
MESQUITE       SUNNY     68  63  83 E6        30.16S
$$

TXZ091>094-102>105-117-120-121-131>134-221600-
NORTH CENTRAL TEXAS

CITY           SKY/WX    TMP DP  RH WIND       PRES   REMARKS
SHRMAN/DENISON SUNNY     70  64  81 SE8       30.19R
BRIDGEPORT     MOSUNNY   67  61  80 S5        30.18R
$$

TXZ083>090-098>101-113>116-127>130-139>142-154-155-221600-
WESTERN NORTH TEXAS

CITY           SKY/WX    TMP DP  RH WIND       PRES   REMARKS
WICHITA FALLS  NOT AVBL
ABILENE        NOT AVBL
ABILENE-DYESS  DRIZZLE   66  52  59 S8        30.14R
$$

TXZ143>147-156>162-174-175-221600-
CENTRAL TEXAS

CITY           SKY/WX    TMP DP  RH WIND       PRES   REMARKS
WACO           CLOUDY    68  62  81 E6        30.15R
KILLEEN        PTSUNNY   72  61  68 CALM      30.15R
FORT HOOD      CLOUDY    70  61  73 CALM      30.15R
GATESVILLE     CLOUDY    64  57  77 CALM      30.18R
$$

TXZ095>097-106>112-122>126-135>138-148>153-164>167-221600-
EAST TEXAS

CITY           SKY/WX    TMP DP  RH WIND       PRES   REMARKS
TYLER          NOT AVBL
LONGVIEW       NOT AVBL
$$

SUPPLEMENTAL OBSERVATIONS (CENTRAL)

CITY           SKY/WX    TMP DP  RH WIND       PRES   REMARKS
LAKE TEXOMA      N/A     64  59  82 E5          N/A
CADDO GRASSLND   N/A     70  63  78 SE3         N/A
PAT MAYSE LAKE   N/A     66  59  77 E3          N/A
GREENVILLE       N/A    N/A N/A N/A E7          N/A
CEDAR HILL       N/A     73  63  68 SE3         N/A
PALESTINE        N/A     70  63  78 E3          N/A
MCGREGOR         N/A     66  61  82 E3          N/A
TEMPLE           N/A     72  63  73 E7          N/A
$$

SUPPLEMENTAL OBSERVATIONS (WEST)

CITY           SKY/WX    TMP DP  RH WIND       PRES   REMARKS
MILLERS CREEK    N/A     64  52  63 S6          N/A
POSSUM KINGDOM   N/A     68  55  64 S6          N/A
LBJ GRASSLAND    N/A     70  59  68 SE8         N/A
GRANBURY         N/A     64  57  77 E2          N/A
HAMBY            N/A     66  48  52 S9          N/A
IVIE RESERVOIR   N/A     68  52  56 E5          N/A
COLORADO BEND    N/A     70  55  60 SE3         N/A
$$

SUPPLEMENTAL OBSERVATIONS (EAST)

CITY           SKY/WX    TMP DP  RH WIND       PRES   REMARKS
CLARKSVILLE      N/A     70  55  60 SE5         N/A
TEXARKANA        N/A     68  54  60 NE3         N/A
LINDEN           N/A     66  55  68 E3          N/A
CADDO LAKE       N/A     70  59  68 E2          N/A
GILMER           N/A     70  57  64 SE5         N/A
HENDERSON        N/A     72  61  68 E6          N/A
LUFKIN           N/A     72  63  73 MISG        N/A
N SABINE NF      N/A    N/A N/A N/A MISG        N/A
$$

SUPPLEMENTAL OBSERVATIONS ARE A COLLECTION OF AUTOMATED INSTRUMENTS
THAT ARE MAINTAINED BY A VARIETY OF FEDERAL AND STATE AGENCIES.
CERTAIN ELEMENTS...SUCH AS HUMIDITY VALUES AND SUSTAINED WIND
SPEEDS...MAY BE APPROXIMATED.





U.S. Dept. of Commerce
NOAA National Weather Service
1325 East West Highway
Silver Spring, MD 20910
E-mail: w-nws.webmaster@noaa.gov
Page last modified: May 16, 2007
NATIONAL WEATHER SERVICE: for Safety, for Work, for Fun - FOR LIFE